EW5684 Orbassano IT current weather conditions

sailwx.info

Wind from 219 at 1 knots gusting 3

Air temperature 26.7° C
Dewpoint 15.1° C

Last reported at 2020-Aug-09 07:58 UTC.
Time now 2020-Aug-09 08:26 UTC

Location: N 44°60' E 007°33'.
View on Google Maps.

See reports from other nearby stations

  
Tides and Currents Weather Stations Pressure Air Temp Water Temp Dewpoint Dewpoint Depression Visibility Wind Speed Wind Dir Waves Ship Positions
date/time (UTC)wind fromknots sea level pressurealtimeterstation pressurevisibilityair tempwater tempwave heightnotes
2020-Aug-09 08:08 173 1 gusting 2 26.7
2020-Aug-09 08:03 207 2 gusting 3 26.7
2020-Aug-09 07:58 219 1 gusting 3 26.7
2020-Aug-09 07:53 149 0 gusting 3 26.7
2020-Aug-09 07:48 142 1 gusting 2 26.7
2020-Aug-09 07:43 147 0 gusting 2 26.1
2020-Aug-09 07:38 227 1 gusting 2 25.6
2020-Aug-09 07:33 231 25.6
2020-Aug-09 07:28 238 1 gusting 2 25.0
2020-Aug-09 07:23 237 0 gusting 2 25.0
2020-Aug-09 07:18 237 1 gusting 2 25.0
2020-Aug-09 07:13 230 1 gusting 2 25.0
2020-Aug-09 07:08 207 0 gusting 1 25.0
2020-Aug-09 07:03 204 25.0
2020-Aug-09 06:58 179 24.4
2020-Aug-09 06:53 179 0 gusting 1 24.4
2020-Aug-09 06:48 179 0 gusting 1 24.4
2020-Aug-09 06:43 169 24.4
2020-Aug-09 06:38 169 24.4
2020-Aug-09 06:33 169 24.4
2020-Aug-09 06:28 169 0 gusting 1 23.9
2020-Aug-09 06:23 169 0 gusting 1 23.3
2020-Aug-09 06:18 169 0 gusting 1 23.3
2020-Aug-09 06:13 169 0 gusting 1 23.3
2020-Aug-09 06:08 169 23.3
2020-Aug-09 06:03 169 22.8
2020-Aug-09 05:58 169 22.8
2020-Aug-09 05:53 169 22.8
2020-Aug-09 05:48 169 22.8
2020-Aug-09 05:43 169 22.8
2020-Aug-09 05:38 22.2
2020-Aug-09 05:33 22.8
2020-Aug-09 05:28 22.8
2020-Aug-09 05:23 169 22.2
2020-Aug-09 05:18 169 21.7
2020-Aug-09 05:13 169 21.7
2020-Aug-09 05:08 169 21.7
2020-Aug-09 05:03 169 21.7
2020-Aug-09 04:58 169 21.1
2020-Aug-09 04:53 169 21.1
2020-Aug-09 04:48 169 21.1
2020-Aug-09 04:43 169 21.1
2020-Aug-09 04:38 169 21.1
2020-Aug-09 04:33 169 21.1
2020-Aug-09 04:28 169 21.1
2020-Aug-09 04:23 169 21.1
2020-Aug-09 04:18 169 21.7
2020-Aug-09 04:13 169 21.1
2020-Aug-09 04:08 169 21.1
2020-Aug-09 04:03 169 20.6
2020-Aug-09 03:58 169 20.0
2020-Aug-09 03:53 133 20.6
2020-Aug-09 03:48 130 21.7
2020-Aug-09 03:43 130 22.8
2020-Aug-09 03:38 130 22.8
2020-Aug-09 03:33 131 22.8
2020-Aug-09 03:28 137 1 gusting 2 22.8
2020-Aug-09 03:23 011 23.9
2020-Aug-09 03:18 006 23.9
2020-Aug-09 03:13 007 23.9
2020-Aug-09 03:08 007 23.9
2020-Aug-09 03:03 007 23.9
2020-Aug-09 02:58 004 23.9
2020-Aug-09 02:53 23.9
2020-Aug-09 02:47 006 1 gusting 3 23.9
2020-Aug-09 02:43 007 1 gusting 3 23.9
2020-Aug-09 02:37 018 0 gusting 3 23.9
2020-Aug-09 02:32 028 23.9
2020-Aug-09 02:28 028 23.9
2020-Aug-09 02:22 028 23.3
2020-Aug-09 02:17 028 23.9
2020-Aug-09 02:12 028 23.9
2020-Aug-09 02:07 028 23.9
2020-Aug-09 02:02 028 23.9
2020-Aug-09 01:57 028 23.9
2020-Aug-09 01:52 028 23.9
2020-Aug-09 01:47 028 23.9
2020-Aug-09 01:42 028 23.9
2020-Aug-09 01:37 028 23.9
2020-Aug-09 01:32 028 23.9
2020-Aug-09 01:27 027 23.9
2020-Aug-09 01:23 027 23.9
2020-Aug-09 01:17 027 23.9
2020-Aug-09 01:12 027 23.9
2020-Aug-09 01:08 027 24.4
2020-Aug-09 01:02 027 24.4
2020-Aug-09 00:57 027 24.4
2020-Aug-09 00:52 027 24.4
2020-Aug-09 00:47 027 24.4
2020-Aug-09 00:42 027 0 gusting 1 25.0
2020-Aug-09 00:37 027 1 gusting 2 24.4
2020-Aug-09 00:32 345 1 gusting 4 25.0
2020-Aug-09 00:27 25.0
2020-Aug-09 00:22 343 0 gusting 4 25.0
2020-Aug-09 00:17 353 1 gusting 4 25.0
2020-Aug-09 00:12 333 1 gusting 2 25.0
2020-Aug-09 00:07 016 1 gusting 4 25.0
2020-Aug-09 00:02 343 1 gusting 4 25.0
2020-Aug-08 23:57 25.0
2020-Aug-08 23:52 25.0
2020-Aug-08 23:47 25.0
2020-Aug-08 23:42 25.0
2020-Aug-08 23:37 25.0
2020-Aug-08 23:32 25.6
2020-Aug-08 23:27 25.6
2020-Aug-08 23:22 011 1 gusting 2 25.6
2020-Aug-08 23:17 017 1 gusting 2 25.6
2020-Aug-08 23:12 023 1 gusting 2 25.6
2020-Aug-08 23:07 25.6
2020-Aug-08 23:02 343 25.6
2020-Aug-08 22:57 348 3 gusting 4 25.6
2020-Aug-08 22:52 25.6
2020-Aug-08 22:47 347 0 gusting 2 25.6
2020-Aug-08 22:42 347 1 gusting 4 25.6
2020-Aug-08 22:37 25.6
2020-Aug-08 22:32 353 2 gusting 3 25.6
2020-Aug-08 22:27 353 1 gusting 2 25.6
2020-Aug-08 22:22 351 1 gusting 2 25.6
2020-Aug-08 22:17 351 25.6
2020-Aug-08 22:12 351 25.6
2020-Aug-08 22:08 351 25.6
2020-Aug-08 22:02 351 25.6
2020-Aug-08 21:57 351 0 gusting 2 26.1
2020-Aug-08 21:52 354 1 gusting 2 26.1
2020-Aug-08 21:47 354 26.1
2020-Aug-08 21:42 354 0 gusting 2 26.7
2020-Aug-08 21:37 354 1 gusting 2 26.7
2020-Aug-08 21:32 354 0 gusting 2 26.7
2020-Aug-08 21:27 354 0 gusting 2 26.7
2020-Aug-08 21:22 354 1 gusting 2 26.7
2020-Aug-08 21:17 357 0 gusting 2 26.7
2020-Aug-08 21:12 357 2 gusting 3 26.7
2020-Aug-08 21:07 26.7
2020-Aug-08 21:02 013 0 gusting 2 26.7
2020-Aug-08 20:57 351 0 gusting 2 26.7
2020-Aug-08 20:52 351 1 gusting 3 26.7
2020-Aug-08 20:47 017 1 gusting 3 27.2
2020-Aug-08 20:42 018 3 gusting 3 27.2
2020-Aug-08 20:37 27.2
2020-Aug-08 20:32 27.2
2020-Aug-08 20:27 27.8
2020-Aug-08 20:22 27.8
2020-Aug-08 20:17 011 2 gusting 4 27.8
2020-Aug-08 20:12 006 1 gusting 2 27.2
2020-Aug-08 20:07 27.2
2020-Aug-08 20:02 27.2
2020-Aug-08 19:57 27.2
2020-Aug-08 19:52 27.2
2020-Aug-08 19:47 27.2
2020-Aug-08 19:42 27.2
2020-Aug-08 19:37 27.2
2020-Aug-08 19:32 006 27.2
2020-Aug-08 19:27 006 28.3
2020-Aug-08 19:22 006 0 gusting 2 28.3
2020-Aug-08 19:17 027 28.3
2020-Aug-08 19:12 027 0 gusting 2 28.3
2020-Aug-08 19:07 113 0 gusting 2 28.9
2020-Aug-08 19:02 117 0 gusting 2 28.9
2020-Aug-08 18:57 110 1 gusting 2 28.3
2020-Aug-08 18:52 106 1 gusting 2 28.9
2020-Aug-08 18:47 245 28.9
2020-Aug-08 18:42 245 28.3
2020-Aug-08 18:37 245 28.3
2020-Aug-08 18:32 245 28.3
2020-Aug-08 18:27 245 28.3
2020-Aug-08 18:22 245 28.9
2020-Aug-08 18:17 245 29.4
2020-Aug-08 18:12 245 29.4
2020-Aug-08 18:07 245 30.0
2020-Aug-08 18:02 247 30.0
2020-Aug-08 17:57 247 1 gusting 1 29.4
2020-Aug-08 17:52 247 1 gusting 2 29.4
2020-Aug-08 17:47 245 1 gusting 2 30.0
2020-Aug-08 17:42 245 1 gusting 3 29.4
2020-Aug-08 17:37 245 2 gusting 3 30.0
2020-Aug-08 17:32 248 2 gusting 3 30.6
2020-Aug-08 17:27 227 1 gusting 2 30.6
2020-Aug-08 17:22 223 1 gusting 2 31.7
2020-Aug-08 17:17 224 32.2
2020-Aug-08 17:12 223 31.7
2020-Aug-08 17:07 223 0 gusting 2 31.7
2020-Aug-08 17:02 213 1 gusting 2 31.7
2020-Aug-08 16:57 219 1 gusting 3 31.7
2020-Aug-08 16:52 224 31.7
2020-Aug-08 16:47 204 1 gusting 3 31.7
2020-Aug-08 16:42 210 1 gusting 2 32.2
2020-Aug-08 16:38 204 1 gusting 2 32.2
2020-Aug-08 16:32 210 1 gusting 2 32.2
2020-Aug-08 16:27 210 1 gusting 3 31.7
2020-Aug-08 16:22 233 1 gusting 3 31.7
2020-Aug-08 16:17 250 1 gusting 3 31.7
2020-Aug-08 16:12 244 2 gusting 3 32.2
2020-Aug-08 16:07 241 2 gusting 3 31.7
2020-Aug-08 16:02 216 1 gusting 3 32.8
2020-Aug-08 15:57 217 2 gusting 4 31.7
2020-Aug-08 15:52 228 2 gusting 5 32.2
2020-Aug-08 15:47 258 4 gusting 5 31.7
2020-Aug-08 15:42 204 1 gusting 5 31.7
2020-Aug-08 15:37 247 3 gusting 5 31.7
2020-Aug-08 15:32 233 1 gusting 3 31.7
2020-Aug-08 15:27 259 1 gusting 3 31.7
2020-Aug-08 15:22 243 1 gusting 3 31.7
2020-Aug-08 15:17 248 1 gusting 3 31.7
2020-Aug-08 15:12 204 2 gusting 4 31.7
2020-Aug-08 15:07 251 2 gusting 5 31.7
2020-Aug-08 15:02 204 3 gusting 5 31.7
2020-Aug-08 14:57 202 2 gusting 7 31.1
2020-Aug-08 14:52 233 3 gusting 7 31.1
2020-Aug-08 14:47 255 4 gusting 7 31.7
2020-Aug-08 14:42 261 2 gusting 6 31.1
2020-Aug-08 14:37 285 3 gusting 6 30.6
2020-Aug-08 14:32 248 3 gusting 7 31.1
2020-Aug-08 14:27 258 3 gusting 7 31.1
2020-Aug-08 14:22 183 1 gusting 7 31.7
2020-Aug-08 14:17 234 4 gusting 7 31.7
2020-Aug-08 14:12 234 3 gusting 6 31.1
2020-Aug-08 14:07 219 4 gusting 6 31.1
2020-Aug-08 14:02 244 4 gusting 4 31.1
2020-Aug-08 13:57 250 2 gusting 5 31.7
2020-Aug-08 13:52 240 2 gusting 5 31.7
2020-Aug-08 13:47 207 1 gusting 5 32.2
2020-Aug-08 13:42 188 0 gusting 4 31.7
2020-Aug-08 13:37 197 1 gusting 4 31.7
2020-Aug-08 13:32 199 3 gusting 4 31.7
2020-Aug-08 13:27 147 1 gusting 4 32.2
2020-Aug-08 13:22 124 2 gusting 6 32.2
2020-Aug-08 13:17 137 4 gusting 6 32.2
2020-Aug-08 13:12 186 3 gusting 6 31.7
2020-Aug-08 13:07 148 1 gusting 7 31.1
2020-Aug-08 13:02 200 4 gusting 7 31.7
2020-Aug-08 12:57 183 3 gusting 5 32.2
2020-Aug-08 12:52 145 2 gusting 5 31.1
2020-Aug-08 12:47 254 1 gusting 5 31.1
2020-Aug-08 12:42 203 3 gusting 5 31.7
2020-Aug-08 12:37 193 1 gusting 5 31.7
2020-Aug-08 12:32 164 2 gusting 5 31.1
2020-Aug-08 12:27 182 1 gusting 4 31.1
2020-Aug-08 12:22 154 2 gusting 4 31.1
2020-Aug-08 12:17 141 0 gusting 4 31.7
2020-Aug-08 12:12 182 1 gusting 5 31.7
2020-Aug-08 12:07 179 1 gusting 5 31.7
2020-Aug-08 12:02 172 1 gusting 5 31.1
2020-Aug-08 11:57 164 1 gusting 5 30.6
2020-Aug-08 11:52 180 3 gusting 5 31.1
2020-Aug-08 11:47 200 1 gusting 4 31.1
2020-Aug-08 11:42 157 1 gusting 4 30.6
2020-Aug-08 11:37 148 2 gusting 5 31.1
2020-Aug-08 11:32 127 3 gusting 5 31.1
2020-Aug-08 11:27 185 1 gusting 6 31.1
2020-Aug-08 11:22 212 2 gusting 6 30.6
2020-Aug-08 11:17 182 3 gusting 6 30.0
2020-Aug-08 11:12 185 2 gusting 5 30.6
2020-Aug-08 11:07 186 1 gusting 6 30.0
2020-Aug-08 11:02 158 1 gusting 6 30.0
2020-Aug-08 10:57 162 2 gusting 5 30.0
2020-Aug-08 10:52 149 1 gusting 4 29.4
2020-Aug-08 10:47 200 3 gusting 6 30.6
2020-Aug-08 10:42 131 1 gusting 6 30.0
2020-Aug-08 10:37 149 1 gusting 4 30.6
2020-Aug-08 10:32 165 2 gusting 4 29.4
2020-Aug-08 10:27 145 2 gusting 5 29.4
2020-Aug-08 10:22 213 3 gusting 5 28.9
2020-Aug-08 10:17 233 2 gusting 3 29.4
2020-Aug-08 10:12 166 0 gusting 2 29.4
2020-Aug-08 10:07 217 0 gusting 3 29.4
2020-Aug-08 10:02 164 1 gusting 4 28.9
2020-Aug-08 09:57 172 1 gusting 5 28.9
2020-Aug-08 09:52 203 1 gusting 5 28.3
2020-Aug-08 09:47 185 1 gusting 5 28.3
2020-Aug-08 09:42 237 4 gusting 5 27.8
2020-Aug-08 09:37 216 2 gusting 3 27.8
2020-Aug-08 09:32 202 1 gusting 5 28.3
2020-Aug-08 09:27 224 2 gusting 5 27.8
2020-Aug-08 09:22 196 2 gusting 4 28.3
2020-Aug-08 09:17 123 1 gusting 4 27.8
2020-Aug-08 09:12 188 2 gusting 4 28.3
2020-Aug-08 09:07 176 0 gusting 5 27.8
2020-Aug-08 09:02 188 1 gusting 5 27.2
2020-Aug-08 08:57 169 1 gusting 2 27.2
2020-Aug-08 08:52 149 1 gusting 2 27.8
2020-Aug-08 08:47 182 26.7
2020-Aug-08 08:42 207 1 gusting 4 26.7
2020-Aug-08 08:37 209 0 gusting 4 26.7
2020-Aug-08 08:32 238 3 gusting 4 26.1
2020-Aug-08 08:27 254 3 gusting 4 26.7
2020-Aug-08 08:22 195 1 gusting 3 26.1
2020-Aug-08 08:17 164 1 gusting 4 26.7
2020-Aug-08 08:12 243 3 gusting 4 26.1
2020-Aug-08 08:07 227 2 gusting 3 26.1
2020-Aug-08 08:02 234 1 gusting 3 26.1
2020-Aug-08 07:57 204 1 gusting 3 26.1
2020-Aug-08 07:52 202 1 gusting 3 25.6
2020-Aug-08 07:47 235 1 gusting 2 25.6
2020-Aug-08 07:42 240 25.0
2020-Aug-08 07:37 241 0 gusting 1 24.4
2020-Aug-08 07:32 213 1 gusting 1 24.4
2020-Aug-08 07:27 179 0 gusting 1 25.0
2020-Aug-08 07:22 178 24.4
2020-Aug-08 07:17 175 24.4
2020-Aug-08 07:12 175 0 gusting 1 24.4
2020-Aug-08 07:07 175 23.9
2020-Aug-08 07:02 173 23.9
2020-Aug-08 06:57 172 23.9
2020-Aug-08 06:52 172 0 gusting 1 23.3
2020-Aug-08 06:47 172 22.8
2020-Aug-08 06:42 172 22.8
2020-Aug-08 06:37 168 0 gusting 2 22.8
2020-Aug-08 06:32 072 22.2
2020-Aug-08 06:27 071 22.2
2020-Aug-08 06:22 071 21.7
2020-Aug-08 06:17 071 21.1
2020-Aug-08 06:12 071 21.1
2020-Aug-08 06:07 071 21.1
2020-Aug-08 06:02 21.1
2020-Aug-08 05:57 20.6
2020-Aug-08 05:52 076 21.1
2020-Aug-08 05:47 21.1
2020-Aug-08 05:42 20.6
2020-Aug-08 05:37 20.0
2020-Aug-08 05:32 20.0
2020-Aug-08 05:27 20.0
2020-Aug-08 05:22 20.0
2020-Aug-08 05:17 20.0
2020-Aug-08 05:12 069 21.1
2020-Aug-08 05:07 069 0 gusting 2 21.1
2020-Aug-08 05:02 358 21.1
2020-Aug-08 04:57 358 21.1
2020-Aug-08 04:52 358 20.6
2020-Aug-08 04:47 358 20.0
2020-Aug-08 04:42 358 20.0
2020-Aug-08 04:37 358 20.0
2020-Aug-08 04:32 358 20.0
2020-Aug-08 04:27 358 20.0
2020-Aug-08 04:22 358 20.0
2020-Aug-08 04:17 358 20.6
2020-Aug-08 04:12 358 20.6
2020-Aug-08 04:07 358 20.6
2020-Aug-08 04:02 358 21.7
2020-Aug-08 03:57 358 21.7
2020-Aug-08 03:52 358 22.2
2020-Aug-08 03:47 358 22.2
2020-Aug-08 03:42 358 22.8
2020-Aug-08 03:37 358 22.2
2020-Aug-08 03:32 358 1 gusting 2 22.2
2020-Aug-08 03:27 358 0 gusting 0 22.2
2020-Aug-08 03:22 358 22.2
2020-Aug-08 03:17 358 22.8
2020-Aug-08 03:12 358 22.8
2020-Aug-08 03:07 358 22.8
2020-Aug-08 03:02 358 0 gusting 2 22.8
2020-Aug-08 02:57 358 0 gusting 3 22.8
2020-Aug-08 02:52 358 1 gusting 3 22.8
2020-Aug-08 02:47 22.8
2020-Aug-08 02:42 355 1 gusting 3 23.3
2020-Aug-08 02:37 004 2 gusting 4 23.3
2020-Aug-08 02:32 006 2 gusting 4 23.3
2020-Aug-08 02:27 354 1 gusting 5 23.3
2020-Aug-08 02:22 23.3
2020-Aug-08 02:17 343 1 gusting 3 23.3
2020-Aug-08 02:12 23.3
2020-Aug-08 02:07 343 2 gusting 3 23.3
2020-Aug-08 02:02 007 1 gusting 2 23.3
2020-Aug-08 01:57 23.3
2020-Aug-08 01:52 341 23.3
2020-Aug-08 01:47 331 1 gusting 4 23.3
2020-Aug-08 01:42 004 1 gusting 3 23.3
2020-Aug-08 01:37 355 1 gusting 3 23.3
2020-Aug-08 01:32 014 2 gusting 3 23.3
2020-Aug-08 01:27 010 1 gusting 4 23.3
2020-Aug-08 01:22 345 1 gusting 4 23.3
2020-Aug-08 01:17 010 2 gusting 4 23.3
2020-Aug-08 01:12 353 3 gusting 4 23.3
2020-Aug-08 01:07 23.3
2020-Aug-08 01:02 344 2 gusting 4 23.3
2020-Aug-08 00:57 358 1 gusting 4 23.9
2020-Aug-08 00:52 350 3 gusting 4 23.9
2020-Aug-08 00:47 23.9
2020-Aug-08 00:42 23.9
2020-Aug-08 00:37 338 3 gusting 5 23.9
2020-Aug-08 00:32 23.9
2020-Aug-08 00:27 329 4 gusting 6 23.9
2020-Aug-08 00:22 345 3 gusting 6 23.9
2020-Aug-08 00:17 353 3 gusting 5 23.9
2020-Aug-08 00:12 345 2 gusting 6 23.9
2020-Aug-08 00:07 343 3 gusting 6 23.9
2020-Aug-08 00:02 345 3 gusting 6 23.9
2020-Aug-07 23:57 353 3 gusting 5 23.9
2020-Aug-07 23:52 327 2 gusting 4 23.9
2020-Aug-07 23:47 355 2 gusting 4 23.9
2020-Aug-07 23:42 24.4
2020-Aug-07 23:37 24.4
2020-Aug-07 23:32 344 2 gusting 2 24.4
2020-Aug-07 23:27 354 24.4
2020-Aug-07 23:22 24.4
2020-Aug-07 23:17 24.4
2020-Aug-07 23:12 320 1 gusting 4 24.4
2020-Aug-07 23:07 008 2 gusting 5 24.4
2020-Aug-07 23:02 24.4
2020-Aug-07 22:57 348 2 gusting 3 24.4
2020-Aug-07 22:52 001 1 gusting 3 24.4
2020-Aug-07 22:47 355 2 gusting 3 24.4
2020-Aug-07 22:42 007 0 gusting 2 24.4
2020-Aug-07 22:37 355 1 gusting 2 25.0
2020-Aug-07 22:32 355 0 gusting 2 25.0
2020-Aug-07 22:27 355 2 gusting 2 25.0
2020-Aug-07 22:22 355 1 gusting 2 25.0
2020-Aug-07 22:17 355 25.0
2020-Aug-07 22:12 355 1 gusting 3 25.0
2020-Aug-07 22:07 355 1 gusting 3 25.0
2020-Aug-07 22:02 355 2 gusting 3 25.0
2020-Aug-07 21:57 028 1 gusting 2 25.0
2020-Aug-07 21:52 030 0 gusting 1 25.0
2020-Aug-07 21:47 030 1 gusting 3 25.6
2020-Aug-07 21:42 030 1 gusting 3 25.6
2020-Aug-07 21:37 030 2 gusting 3 25.6
2020-Aug-07 21:32 055 25.6
2020-Aug-07 21:27 016 2 gusting 3 25.6
2020-Aug-07 21:22 25.6
2020-Aug-07 21:17 347 1 gusting 3 25.6
2020-Aug-07 21:12 317 2 gusting 3 25.6
2020-Aug-07 21:07 336 0 gusting 2 26.1
2020-Aug-07 21:02 336 2 gusting 3 26.1
2020-Aug-07 20:57 337 1 gusting 3 26.1
2020-Aug-07 20:52 26.1
2020-Aug-07 20:47 26.1
2020-Aug-07 20:42 26.1
2020-Aug-07 20:37 065 25.6
2020-Aug-07 20:32 065 25.0
2020-Aug-07 20:27 065 25.0
2020-Aug-07 20:22 065 25.0
2020-Aug-07 20:17 065 25.6
2020-Aug-07 20:12 065 25.6
2020-Aug-07 20:07 065 25.6
2020-Aug-07 20:02 065 25.6
2020-Aug-07 19:57 065 26.7
2020-Aug-07 19:52 065 26.7
2020-Aug-07 19:47 065 27.8
2020-Aug-07 19:42 065 1 gusting 3 27.2
2020-Aug-07 19:37 061 1 gusting 3 27.2
2020-Aug-07 19:32 061 0 gusting 2 27.2
2020-Aug-07 19:27 354 0 gusting 3 27.2
2020-Aug-07 19:22 338 1 gusting 4 27.2
2020-Aug-07 19:17 345 2 gusting 4 27.8
2020-Aug-07 19:12 209 1 gusting 1 27.2
2020-Aug-07 19:07 193 27.2
2020-Aug-07 19:02 193 0 gusting 1 26.7
2020-Aug-07 18:57 192 0 gusting 1 26.7
2020-Aug-07 18:52 147 28.3
2020-Aug-07 18:47 147 28.3
2020-Aug-07 18:42 147 0 gusting 3 28.3
2020-Aug-07 18:37 147 2 gusting 3 28.3
2020-Aug-07 18:32 193 1 gusting 2 28.9
2020-Aug-07 18:27 197 2 gusting 2 28.9
2020-Aug-07 18:22 261 28.3
2020-Aug-07 18:17 261 28.3
2020-Aug-07 18:12 261 28.3
2020-Aug-07 18:07 261 28.3
2020-Aug-07 18:02 261 28.9
2020-Aug-07 17:57 261 0 gusting 2 28.9
2020-Aug-07 17:52 261 0 gusting 2 29.4
2020-Aug-07 17:47 261 1 gusting 3 29.4
2020-Aug-07 17:42 261 1 gusting 3 29.4
2020-Aug-07 17:37 251 2 gusting 3 29.4
2020-Aug-07 17:32 248 1 gusting 3 30.0
2020-Aug-07 17:27 247 0 gusting 3 30.0
2020-Aug-07 17:22 247 1 gusting 3 30.6
2020-Aug-07 17:17 247 1 gusting 2 30.0
2020-Aug-07 17:12 247 1 gusting 3 30.0
2020-Aug-07 17:07 247 3 gusting 3 30.6
2020-Aug-07 17:02 220 2 gusting 3 31.1
2020-Aug-07 16:57 217 0 gusting 3 31.1
2020-Aug-07 16:52 219 2 gusting 2 30.6
2020-Aug-07 16:47 240 1 gusting 4 30.6
2020-Aug-07 16:42 202 3 gusting 4 31.1
2020-Aug-07 16:37 200 1 gusting 4 30.6
2020-Aug-07 16:32 213 1 gusting 4 30.6
2020-Aug-07 16:27 230 2 gusting 5 30.6
2020-Aug-07 16:22 228 4 gusting 5 30.6
2020-Aug-07 16:17 261 1 gusting 4 31.1
2020-Aug-07 16:12 212 1 gusting 4 31.1
2020-Aug-07 16:07 238 1 gusting 4 31.1
2020-Aug-07 16:02 243 3 gusting 4 31.1
2020-Aug-07 15:57 231 1 gusting 4 31.1
2020-Aug-07 15:52 241 2 gusting 4 31.1
2020-Aug-07 15:47 226 1 gusting 4 31.1
2020-Aug-07 15:42 220 2 gusting 4 31.1
2020-Aug-07 15:37 252 4 gusting 4 31.1
2020-Aug-07 15:32 189 2 gusting 5 31.1
2020-Aug-07 15:27 241 3 gusting 5 31.1
2020-Aug-07 15:22 183 3 gusting 5 31.1
2020-Aug-07 15:17 264 3 gusting 4 30.6
2020-Aug-07 15:12 244 2 gusting 4 31.1
2020-Aug-07 15:07 162 1 gusting 7 31.1
2020-Aug-07 15:02 192 2 gusting 7 31.1
2020-Aug-07 14:57 182 2 gusting 5 30.6
2020-Aug-07 14:52 234 1 gusting 4 31.1
2020-Aug-07 14:47 169 1 gusting 4 31.1
2020-Aug-07 14:42 241 1 gusting 4 31.7
2020-Aug-07 14:37 197 2 gusting 6 30.6
2020-Aug-07 14:32 254 3 gusting 6 31.1
2020-Aug-07 14:27 193 2 gusting 4 31.1
2020-Aug-07 14:22 214 2 gusting 4 31.1
2020-Aug-07 14:17 248 1 gusting 5 31.7
2020-Aug-07 14:12 189 1 gusting 5 31.7
2020-Aug-07 14:07 180 1 gusting 4 31.1
2020-Aug-07 14:02 188 2 gusting 5 30.6
2020-Aug-07 13:57 264 3 gusting 5 30.6
2020-Aug-07 13:52 219 1 gusting 6 30.6
2020-Aug-07 13:47 178 3 gusting 6 31.1
2020-Aug-07 13:42 186 3 gusting 6 31.1
2020-Aug-07 13:37 199 2 gusting 3 31.7
2020-Aug-07 13:32 123 2 gusting 5 30.6
2020-Aug-07 13:27 195 3 gusting 5 30.6
2020-Aug-07 13:22 151 3 gusting 5 30.6
2020-Aug-07 13:17 196 3 gusting 6 30.0
2020-Aug-07 13:12 210 4 gusting 6 30.6
2020-Aug-07 13:07 200 3 gusting 5 30.6
2020-Aug-07 13:02 243 0 gusting 5 31.1
2020-Aug-07 12:57 231 1 gusting 5 30.0
2020-Aug-07 12:52 206 2 gusting 3 30.6
2020-Aug-07 12:47 252 1 gusting 7 30.6
2020-Aug-07 12:42 123 4 gusting 7 31.1
2020-Aug-07 12:37 164 1 gusting 5 30.0
2020-Aug-07 12:32 179 0 gusting 5 30.0
2020-Aug-07 12:27 212 5 gusting 5 30.0
2020-Aug-07 12:22 180 2 gusting 5 30.0
2020-Aug-07 12:17 250 3 gusting 5 29.4
2020-Aug-07 12:12 266 4 gusting 5 29.4
2020-Aug-07 12:07 247 2 gusting 4 30.6
2020-Aug-07 12:02 127 2 gusting 4 30.0
2020-Aug-07 11:57 197 2 gusting 4 30.0
2020-Aug-07 11:52 120 2 gusting 5 30.6
2020-Aug-07 11:47 124 3 gusting 5 30.0
2020-Aug-07 11:42 214 3 gusting 4 30.0
2020-Aug-07 11:37 154 2 gusting 3 29.4
2020-Aug-07 11:32 168 1 gusting 4 29.4
2020-Aug-07 11:27 158 2 gusting 7 29.4
2020-Aug-07 11:22 172 1 gusting 7 29.4
2020-Aug-07 11:17 178 1 gusting 6 29.4
2020-Aug-07 11:12 155 3 gusting 5 29.4
2020-Aug-07 11:07 076 3 gusting 6 28.9
2020-Aug-07 11:02 123 1 gusting 6 29.4
2020-Aug-07 10:57 135 2 gusting 5 28.9
2020-Aug-07 10:52 178 2 gusting 5 28.3
2020-Aug-07 10:47 182 3 gusting 6 28.9
2020-Aug-07 10:42 117 3 gusting 6 28.9
2020-Aug-07 10:37 155 1 gusting 7 28.3
2020-Aug-07 10:32 182 3 gusting 7 28.3
2020-Aug-07 10:27 144 2 gusting 6 28.9
2020-Aug-07 10:22 154 2 gusting 4 28.3
2020-Aug-07 10:17 154 1 gusting 4 28.3
2020-Aug-07 10:12 162 1 gusting 4 27.8
2020-Aug-07 10:07 123 1 gusting 5 27.8
2020-Aug-07 10:02 148 2 gusting 5 28.3
2020-Aug-07 09:57 179 1 gusting 6 27.8
2020-Aug-07 09:52 154 1 gusting 6 27.8
2020-Aug-07 09:47 172 2 gusting 4 27.2
2020-Aug-07 09:42 169 2 gusting 4 27.2
2020-Aug-07 09:37 183 1 gusting 4 27.2
2020-Aug-07 09:32 188 1 gusting 7 27.2
2020-Aug-07 09:27 165 0 gusting 7 26.7
2020-Aug-07 09:22 147 1 gusting 4 26.7
2020-Aug-07 09:17 147 2 gusting 5 26.7
2020-Aug-07 09:12 180 2 gusting 5 26.7
2020-Aug-07 09:07 254 1 gusting 3 26.7
2020-Aug-07 09:02 154 0 gusting 2 26.7
2020-Aug-07 08:57 169 1 gusting 2 26.1
2020-Aug-07 08:52 161 1 gusting 3 25.6
2020-Aug-07 08:47 165 2 gusting 3 25.6
2020-Aug-07 08:42 200 0 gusting 2 25.6
2020-Aug-07 08:37 196 1 gusting 3 25.0
2020-Aug-07 08:32 247 2 gusting 3 24.4
2020-Aug-07 08:27 175 0 gusting 3 24.4
2020-Aug-07 08:22 251 1 gusting 4 24.4
2020-Aug-07 08:17 206 2 gusting 4 24.4
2020-Aug-07 08:12 234 3 gusting 3 24.4
2020-Aug-07 08:07 248 1 gusting 2 23.9
2020-Aug-07 08:02 248 1 gusting 2 23.9